Location: Columbia
(38.9520°N, 92.3340°W)
Time: 16:45:05
(UTC-05:00)

Tiangong 1 - Visible Passes

Search period start: 25 March 2017 00:00
Search period end: 04 April 2017 00:00
Orbit: 334 x 358 km, 42.8° (Epoch: 24 March)

Date Brightness Start Highest point End Pass type
(mag) Time Alt. Az. Time Alt. Az. Time Alt. Az.
25 Mar 0.8 19:57:14 10° WNW 20:00:11 85° NNE 20:03:00 11° ESE visible
25 Mar 3.9 21:33:50 10° WSW 21:34:26 13° WSW 21:34:26 13° WSW visible
26 Mar 2.0 20:21:06 10° W 20:23:51 37° SSW 20:25:52 15° SE visible
27 Mar 3.5 20:45:36 10° WSW 20:47:16 14° SW 20:48:46 11° S visible
29 Mar 3.7 19:57:11 10° WSW 19:58:34 13° SW 19:59:55 10° S visible
